EN

Hourly Weather Alto de la Estancia

Today, 17 January, Sunday

Time Temperature Precipitation Wind Pressure Humidity
00:00 +19°C° 0 mm 2 mps 695 mmHg 94%
01:00 +19°C° 0 mm 2 mps 694 mmHg 95%
02:00 +19°C° 0 mm 2 mps 694 mmHg 95%
03:00 +19°C° 0 mm 2 mps 693 mmHg 95%
04:00 +19°C° 0 mm 2 mps 693 mmHg 94%
05:00 +19°C° 0 mm 2 mps 693 mmHg 94%
06:00 +19°C° 0 mm 2 mps 694 mmHg 93%
07:00 +19°C° 0 mm 2 mps 694 mmHg 93%
08:00 +20°C° 0 mm 3 mps 695 mmHg 86%
09:00 +22°C° 0 mm 3 mps 695 mmHg 79%
10:00 +25°C° 0 mm 3 mps 696 mmHg 72%
11:00 +26°C° 0 mm 4 mps 696 mmHg 68%
12:00 +27°C° 0 mm 4 mps 695 mmHg 65%
13:00 +28°C° 0 mm 4 mps 695 mmHg 62%
14:00 +27°C° 0 mm 5 mps 694 mmHg 64%
15:00 +26°C° 0 mm 5 mps 693 mmHg 66%
16:00 +26°C° 0 mm 5 mps 692 mmHg 68%
17:00 +23°C° 0 mm 5 mps 693 mmHg 74%
18:00 +22°C° 0 mm 4 mps 693 mmHg 80%
19:00 +20°C° 0 mm 4 mps 693 mmHg 86%
20:00 +20°C° 0 mm 4 mps 693 mmHg 87%
21:00 +20°C° 0 mm 4 mps 694 mmHg 88%
22:00 +19°C° 0 mm 3 mps 694 mmHg 90%
23:00 +19°C° 0 mm 3 mps 694 mmHg 90%

Tomorrow, 18 January, Monday

Time Temperature Precipitation Wind Pressure Humidity
00:00 +19°C° 0 mm 3 mps 694 mmHg 91%
01:00 +19°C° 0 mm 3 mps 694 mmHg 92%
02:00 +19°C° 0 mm 3 mps 694 mmHg 92%
03:00 +19°C° 0 mm 2 mps 693 mmHg 93%
04:00 +19°C° 0 mm 2 mps 693 mmHg 93%
05:00 +19°C° 0.1 mm 2 mps 694 mmHg 92%
06:00 +19°C° 0.1 mm 2 mps 694 mmHg 92%
07:00 +20°C° 0.1 mm 2 mps 695 mmHg 91%
08:00 +21°C° 0.1 mm 2 mps 695 mmHg 87%
09:00 +22°C° 0.1 mm 3 mps 696 mmHg 82%
10:00 +24°C° 0.1 mm 3 mps 696 mmHg 77%
11:00 +25°C° 0.1 mm 4 mps 696 mmHg 71%
12:00 +26°C° 0.1 mm 4 mps 696 mmHg 65%
13:00 +28°C° 0.1 mm 4 mps 696 mmHg 59%
14:00 +27°C° 0 mm 5 mps 695 mmHg 61%
15:00 +27°C° 0 mm 5 mps 694 mmHg 63%
16:00 +26°C° 0 mm 6 mps 693 mmHg 65%
17:00 +25°C° 0 mm 5 mps 693 mmHg 73%
18:00 +22°C° 0 mm 4 mps 693 mmHg 80%
19:00 +20°C° 0 mm 4 mps 693 mmHg 88%
20:00 +20°C° 0.1 mm 4 mps 694 mmHg 89%
21:00 +20°C° 0.1 mm 3 mps 694 mmHg 91%
22:00 +20°C° 0.1 mm 3 mps 694 mmHg 92%
23:00 +20°C° 0.1 mm 3 mps 694 mmHg 92%

Day after tomorrow, 19 January, Tuesday

Time Temperature Precipitation Wind Pressure Humidity
00:00 +20°C° 0.1 mm 3 mps 694 mmHg 92%
01:00 +20°C° 0.1 mm 3 mps 694 mmHg 92%
02:00 +19°C° 0 mm 3 mps 694 mmHg 92%
03:00 +19°C° 0 mm 3 mps 693 mmHg 92%
04:00 +19°C° 0 mm 3 mps 693 mmHg 92%
05:00 +19°C° 0 mm 3 mps 693 mmHg 92%
06:00 +19°C° 0 mm 3 mps 694 mmHg 92%
07:00 +19°C° 0 mm 3 mps 694 mmHg 92%
08:00 +21°C° 0 mm 3 mps 695 mmHg 87%
09:00 +22°C° 0 mm 4 mps 695 mmHg 82%
10:00 +25°C° 0 mm 4 mps 696 mmHg 77%
11:00 +25°C° 0.2 mm 4 mps 695 mmHg 76%
12:00 +26°C° 0.2 mm 4 mps 695 mmHg 74%
13:00 +26°C° 0.2 mm 5 mps 695 mmHg 73%
14:00 +26°C° 0.2 mm 5 mps 694 mmHg 73%
15:00 +26°C° 0.2 mm 5 mps 693 mmHg 73%
16:00 +26°C° 0.2 mm 5 mps 693 mmHg 73%
17:00 +25°C° 0 mm 4 mps 693 mmHg 78%
18:00 +22°C° 0 mm 4 mps 693 mmHg 83%
19:00 +21°C° 0 mm 4 mps 693 mmHg 88%
20:00 +21°C° 0 mm 4 mps 693 mmHg 89%
21:00 +20°C° 0 mm 4 mps 694 mmHg 90%
22:00 +20°C° 0 mm 4 mps 694 mmHg 91%
23:00 +20°C° 0 mm 3 mps 694 mmHg 92%

20 January, Wednesday

Time Temperature Precipitation Wind Pressure Humidity
00:00 +20°C° 0 mm 3 mps 694 mmHg 92%
01:00 +19°C° 0 mm 2 mps 694 mmHg 93%
02:00 +19°C° 0.1 mm 3 mps 693 mmHg 93%
03:00 +19°C° 0.1 mm 3 mps 693 mmHg 93%
04:00 +19°C° 0.1 mm 3 mps 693 mmHg 94%
05:00 +19°C° 0 mm 3 mps 693 mmHg 93%
06:00 +19°C° 0 mm 3 mps 693 mmHg 93%
07:00 +19°C° 0 mm 3 mps 693 mmHg 93%
08:00 +21°C° 0 mm 3 mps 694 mmHg 86%
09:00 +24°C° 0 mm 3 mps 695 mmHg 80%
10:00 +25°C° 0 mm 4 mps 695 mmHg 73%
11:00 +26°C° 0.1 mm 3 mps 695 mmHg 71%
12:00 +27°C° 0.1 mm 3 mps 695 mmHg 68%
13:00 +28°C° 0.1 mm 3 mps 694 mmHg 65%
14:00 +27°C° 0.9 mm 3 mps 694 mmHg 69%
15:00 +26°C° 0.9 mm 3 mps 693 mmHg 73%
16:00 +26°C° 0.9 mm 3 mps 693 mmHg 77%
17:00 +24°C° 0.2 mm 3 mps 693 mmHg 81%
18:00 +22°C° 0.2 mm 3 mps 693 mmHg 86%
19:00 +21°C° 0.2 mm 3 mps 693 mmHg 91%
20:00 +21°C° 0 mm 3 mps 693 mmHg 91%
21:00 +20°C° 0 mm 3 mps 694 mmHg 92%
22:00 +20°C° 0 mm 3 mps 694 mmHg 92%
23:00 +20°C° 0 mm 3 mps 694 mmHg 92%

21 January, Thursday

Time Temperature Precipitation Wind Pressure Humidity
00:00 +19°C° 0 mm 3 mps 694 mmHg 93%
01:00 +19°C° 0 mm 2 mps 693 mmHg 93%
02:00 +19°C° 0 mm 2 mps 693 mmHg 93%
03:00 +19°C° 0 mm 2 mps 693 mmHg 93%
04:00 +19°C° 0 mm 2 mps 693 mmHg 93%
05:00 +19°C° 0 mm 2 mps 693 mmHg 93%
06:00 +19°C° 0 mm 2 mps 693 mmHg 93%
07:00 +19°C° 0 mm 2 mps 694 mmHg 93%
08:00 +21°C° 0.1 mm 2 mps 694 mmHg 87%
09:00 +22°C° 0.1 mm 3 mps 695 mmHg 82%
10:00 +25°C° 0.1 mm 3 mps 696 mmHg 76%
11:00 +26°C° 0.1 mm 3 mps 695 mmHg 71%
12:00 +27°C° 0.1 mm 3 mps 695 mmHg 67%
13:00 +28°C° 0.1 mm 3 mps 695 mmHg 62%
14:00 +27°C° 0.3 mm 3 mps 694 mmHg 66%
15:00 +26°C° 0.3 mm 4 mps 693 mmHg 70%
16:00 +26°C° 0.3 mm 4 mps 693 mmHg 73%
17:00 +24°C° 0.3 mm 3 mps 693 mmHg 79%
18:00 +22°C° 0.3 mm 3 mps 693 mmHg 84%
19:00 +21°C° 0.3 mm 3 mps 693 mmHg 90%
20:00 +20°C° 0 mm 3 mps 693 mmHg 90%
21:00 +20°C° 0 mm 3 mps 694 mmHg 90%
22:00 +20°C° 0 mm 3 mps 694 mmHg 91%
23:00 +20°C° 0 mm 3 mps 694 mmHg 91%

22 January, Friday

Time Temperature Precipitation Wind Pressure Humidity
00:00 +20°C° 0 mm 2 mps 694 mmHg 92%
01:00 +19°C° 0 mm 2 mps 694 mmHg 92%
02:00 +19°C° 0 mm 2 mps 693 mmHg 92%
03:00 +19°C° 0 mm 2 mps 693 mmHg 93%
04:00 +19°C° 0 mm 2 mps 693 mmHg 93%
05:00 +19°C° 0 mm 2 mps 693 mmHg 93%
06:00 +19°C° 0 mm 2 mps 694 mmHg 93%
07:00 +19°C° 0 mm 2 mps 694 mmHg 93%
08:00 +21°C° 0 mm 3 mps 695 mmHg 87%
09:00 +22°C° 0 mm 3 mps 695 mmHg 80%
10:00 +25°C° 0 mm 4 mps 696 mmHg 73%
11:00 +26°C° 0 mm 4 mps 696 mmHg 70%
12:00 +26°C° 0 mm 4 mps 695 mmHg 66%
13:00 +27°C° 0 mm 4 mps 695 mmHg 63%
14:00 +27°C° 0.1 mm 4 mps 695 mmHg 65%
15:00 +27°C° 0.1 mm 4 mps 694 mmHg 67%
16:00 +26°C° 0.1 mm 4 mps 693 mmHg 69%
17:00 +25°C° 0 mm 4 mps 693 mmHg 75%
18:00 +22°C° 0 mm 4 mps 693 mmHg 81%
19:00 +21°C° 0 mm 4 mps 693 mmHg 88%
20:00 +20°C° 0 mm 3 mps 694 mmHg 89%
21:00 +20°C° 0 mm 3 mps 694 mmHg 90%
22:00 +20°C° 0 mm 3 mps 695 mmHg 91%
23:00 +20°C° 0 mm 3 mps 694 mmHg 92%
Show more